Wetbulb
53.84 53.81 53.71 53.87 52.53 52.14 51.99 51.80 51.96 51.57 51.40 50.98 50.80 50.73 50.86 51.09 51.09 50.94 50.70 50.77 51.29 51.96 52.65 53.29 54.39 55.37 50.69 43.87 43.78 51.61 61.56 60.16 55.67 51.80 48.60 47.09 44.89 43.66 41.74 43.28 43.25 42.26 42.88 44.18 43.44 44.65 44.19
53.83 53.84 53.75 53.39 53.09 52.51 52.12 52.08 51.65 52.02 51.44 51.16 50.84 50.54 50.35 50.58 50.22 50.06 50.00 50.47 50.77 51.57 51.90 53.21 54.13 55.28 46.59 39.62 50.64 50.52 52.51 47.95 48.05 48.06 46.83 46.52 45.29 45.44 42.95 42.45 42.68 44.98 43.48 44.13 43.16 44.34 44.71
53.43 53.57 53.40 53.14 53.08 53.17 52.74 52.50 52.06 51.81 51.69 51.20 51.17 51.23 50.47 50.15 50.11 49.98 49.74 50.13 50.50 50.90 52.01 53.13 54.15 52.54 46.40 44.06 49.54 48.57 50.03 46.26 46.89 47.52 46.52 49.29 48.25 45.28 44.83 43.16 44.94 43.02 40.64 41.98 41.70 41.84 43.42
51.80 52.25 52.48 52.50 52.57 53.21 53.30 53.07 52.62 52.24 51.66 51.22 51.07 51.33 51.19 50.77 50.56 50.46 50.57 50.42 50.36 51.11 52.53 53.79 54.45 48.48 41.32 53.21 51.18 50.59 48.10 47.35 48.40 48.41 48.14 49.29 49.16 47.14 44.90 45.57 43.54 40.05 39.41 36.51 40.08 41.48 41.96
49.52 50.03 50.47 50.86 51.13 52.03 52.59 53.04 52.32 52.05 51.63 51.32 51.33 51.44 51.07 50.59 50.44 50.28 50.20 50.47 50.65 52.03 53.58 54.23 46.29 44.27 41.13 53.49 46.56 48.71 48.03 47.02 47.71 47.99 48.75 50.26 47.82 44.58 44.72 39.97 36.48 36.38 33.49 36.90 38.85 41.27 42.68
48.14 48.43 48.77 48.86 49.16 49.51 50.06 50.60 50.70 51.17 51.74 52.15 51.96 51.63 51.09 50.71 50.32 50.01 49.85 50.47 50.51 51.71 52.94 52.43 49.59 40.41 45.38 44.75 46.63 47.85 46.98 47.78 46.15 46.72 46.12 44.49 42.19 39.50 39.43 36.60 33.85 34.62 35.34 35.15 37.00 39.16 44.06
47.22 47.04 47.14 47.24 47.94 48.53 48.77 48.97 48.75 49.09 50.10 51.16 51.85 52.12 51.24 50.82 50.47 49.82 48.17 46.14 43.64 42.90 44.90 39.76 41.30 42.52 44.54 49.21 46.59 45.34 47.45 45.79 45.08 42.68 38.19 41.20 37.63 35.05 38.53 39.61 40.48 40.01 38.41 37.40 38.12 43.63 43.00
45.45 46.15 46.67 47.02 46.73 46.98 47.24 47.62 47.86 47.95 48.20 48.91 50.25 51.50 51.51 50.68 50.15 50.09 46.38 44.78 45.04 46.08 41.00 48.18 47.72 47.74 49.50 48.11 42.68 44.20 47.03 41.70 41.21 36.54 40.34 38.19 34.24 39.73 41.96 41.80 40.77 39.55 35.94 35.79 39.46 45.01 43.88
45.32 44.95 45.93 46.08 46.48 46.93 46.46 46.78 46.67 47.27 47.59 47.71 48.52 50.10 51.18 50.59 49.46 45.35 41.83 46.58 50.58 49.99 40.27 45.02 47.98 46.77 46.95 45.72 42.27 42.37 44.61 41.77 38.92 37.30 38.15 35.30 38.66 42.73 41.60 40.20 39.10 38.41 36.05 37.82 39.96 43.15 44.29
45.04 45.72 45.73 46.48 46.08 46.97 46.27 46.91 47.03 46.94 47.00 47.95 47.60 48.80 49.80 50.27 43.27 41.39 43.06 46.02 47.55 49.03 33.08 38.17 43.59 46.10 46.07 44.90 40.93 45.69 45.46 43.90 39.90 37.69 39.29 37.80 41.98 41.17 40.11 39.66 40.17 35.27 40.34 42.99 41.63 40.05 34.83
44.73 45.59 45.66 45.95 45.51 45.42 45.90 45.80 46.27 46.85 46.87 47.18 48.21 47.63 48.95 49.64 41.09 38.48 45.15 44.56 46.81 45.75 12.74 40.43 41.51 47.73 45.80 41.69 42.84 44.48 47.13 44.52 39.26 39.76 39.55 36.74 38.58 38.88 38.62 40.22 42.42 38.71 45.02 43.52 42.78 39.93 38.79
43.72 43.81 44.19 44.71 44.69 44.27 44.32 45.01 45.40 45.64 46.30 47.22 47.91 47.15 47.74 44.56 40.98 40.73 43.32 45.14 46.09 24.96 16.11 38.63 41.14 40.15 39.28 41.53 42.49 43.70 44.04 45.71 45.06 40.16 39.13 38.37 41.20 41.20 40.88 42.75 42.56 43.75 43.88 42.88 39.46 37.70 29.92
43.23 42.97 43.23 43.40 43.29 43.40 43.73 43.97 44.48 45.10 46.09 46.76 47.75 47.07 44.95 46.38 38.87 42.04 43.71 43.74 26.65 13.52 36.95 36.22 36.59 39.27 38.05 37.34 39.48 41.39 39.53 38.36 35.24 32.23 32.26 37.09 38.35 40.23 43.09 39.76 41.96 41.36 39.36 29.85 28.91 27.17 27.33
43.33 43.07 42.52 43.27 42.96 42.89 43.04 43.48 43.93 45.41 46.69 46.87 47.54 46.86 44.53 45.22 43.51 42.61 41.37 39.66 12.37 30.31 34.44 41.04 38.46 38.18 34.99 37.27 37.84 40.38 37.48 33.67 38.06 37.08 33.14 31.53 30.18 38.10 41.79 39.29 38.10 39.74 37.92 31.66 24.78 25.78 29.23
42.93 42.74 42.37 42.61 42.76 42.37 42.80 42.92 43.85 45.61 46.44 46.61 46.22 38.84 39.74 42.22 44.63 42.72 39.90 22.20 23.21 33.53 39.75 37.46 37.41 33.87 33.56 36.76 36.84 37.23 36.99 35.79 37.52 38.61 33.04 32.18 32.96 39.54 41.49 42.54 41.20 38.15 33.98 39.36 34.25 34.32 30.89
42.73 42.49 42.48 42.49 42.04 41.77 42.55 43.03 43.81 45.11 45.95 46.25 40.16 35.97 37.37 43.85 45.56 41.42 34.73 27.54 33.16 41.61 41.93 40.24 33.50 35.74 30.90 33.42 33.50 34.82 35.27 39.71 39.08 40.79 41.39 38.22 30.32 38.38 40.53 41.86 41.48 39.14 41.80 34.21 34.00 27.00 25.45
42.46 42.21 42.27 41.83 42.22 41.42 42.04 42.90 43.38 44.04 44.99 44.88 36.58 32.61 38.32 46.04 45.13 39.88 21.78 25.82 36.06 40.63 40.65 38.73 36.81 35.28 35.03 33.50 34.25 33.39 35.75 39.73 41.28 40.61 41.45 39.20 34.29 34.31 38.73 36.59 35.86 36.99 36.18 37.63 37.18 33.22 26.23
42.31 42.22 42.22 41.67 41.83 41.65 41.22 42.05 42.87 43.21 44.24 41.56 34.47 22.36 40.65 45.04 35.74 35.21 29.96 33.95 38.40 37.51 40.65 39.38 39.93 38.10 35.71 36.03 33.77 34.51 35.26 38.78 42.15 41.38 37.27 39.02 34.23 28.91 33.02 39.00 40.74 40.19 38.66 38.01 30.21 29.91 32.62
42.28 42.04 41.96 42.05 41.91 41.71 41.08 40.99 41.86 42.38 42.87 38.40 32.09 27.00 37.05 42.94 29.32 31.53 34.03 34.80 36.51 34.79 35.78 37.45 37.00 39.50 38.40 35.03 32.15 35.62 37.16 42.15 41.51 39.60 37.16 37.72 29.81 25.10 29.45 33.74 36.03 34.96 37.67 39.49 38.65 35.04 31.53
42.35 42.15 41.92 41.94 41.60 41.45 41.20 40.84 40.93 41.64 42.08 36.96 32.79 20.47 25.08 32.40 34.96 32.62 31.27 31.93 32.36 38.57 36.53 36.71 36.68 38.08 35.57 34.98 37.03 34.62 36.10 39.55 40.75 39.65 43.63 40.99 32.44 29.29 26.06 29.36 32.93 31.85 36.01 37.75 36.81 28.07 29.04
42.12 42.04 41.87 41.87 41.58 41.27 41.11 41.15 40.47 40.86 40.86 36.11 33.66 21.83 28.48 16.42 23.15 28.00 28.29 28.29 28.85 29.83 36.71 37.95 33.98 36.71 34.74 31.16 33.06 33.61 35.60 35.85 38.24 41.50 37.76 36.19 29.72 32.74 34.50 35.89 35.67 34.95 35.31 35.84 35.26 34.60 30.60
41.94 41.92 41.71 41.67 41.61 41.45 40.98 40.91 40.62 40.12 39.98 31.57 28.05 29.50 30.89 26.75 28.26 25.87 25.94 23.75 24.67 28.85 32.61 31.44 31.25 34.19 35.43 32.78 34.46 31.87 34.49 33.12 33.13 34.89 33.89 35.59 29.13 32.08 29.90 34.51 34.11 32.93 36.25 36.44 36.10 36.00 35.31
41.82 41.70 41.59 41.39 41.42 41.37 41.29 40.77 40.39 40.09 38.36 31.35 32.64 33.35 30.13 26.00 24.43 23.04 23.59 25.28 26.11 29.66 30.62 33.54 31.72 31.20 31.99 35.42 38.66 37.41 39.73 38.40 36.93 33.84 31.96 33.02 31.41 27.44 25.65 31.48 31.00 24.51 31.41 34.94 35.53 36.81 36.85
41.50 41.55 41.44 41.46 41.40 41.20 41.03 40.65 40.30 39.59 38.20 31.99 30.65 31.60 25.69 20.25 23.08 23.51 25.52 27.23 27.07 28.41 27.17 30.57 31.55 28.72 35.52 41.29 40.70 39.14 38.91 38.58 37.41 35.37 36.04 31.88 30.93 28.39 25.12 26.83 15.67 33.56 37.02 38.33 37.99 38.44 36.60
41.18 41.11 41.34 41.15 41.19 40.85 40.88 40.63 40.45 40.11 40.18 31.69 30.11 27.84 25.38 19.24 23.61 24.85 25.35 25.75 27.77 29.50 27.79 28.74 31.27 33.72 36.78 37.24 33.31 30.00 28.06 33.68 34.24 35.57 35.06 36.24 31.23 24.93 21.79 22.30 28.59 33.19 36.11 35.52 34.75 33.69 37.99
40.66 40.76 40.82 40.73 40.65 40.63 40.46 40.52 40.49 40.19 40.01 33.59 30.47 31.85 25.81 21.47 19.70 27.04 24.52 25.23 22.76 22.86 24.89 28.29 34.30 34.77 37.18 34.47 31.68 27.13 22.39 27.42 27.93 31.08 36.29 36.39 34.63 28.37 22.03 19.45 17.92 30.08 38.41 39.05 38.73 30.44 37.68
40.01 40.26 40.31 40.35 40.28 40.23 40.24 40.24 40.39 40.17 39.92 35.34 30.21 32.35 27.70 22.75 25.13 26.37 22.82 23.52 28.24 26.48 24.68 27.27 28.81 29.57 31.51 32.70 29.22 27.09 27.42 32.53 26.52 26.75 26.91 28.64 27.56 25.67 23.02 20.21 26.91 35.98 39.02 39.66 29.97 30.76 38.55
39.42 39.42 39.62 39.92 39.92 40.07 40.01 40.01 40.09 40.03 40.20 36.40 30.66 32.09 28.90 24.50 25.67 28.51 29.60 25.35 25.88 25.80 22.50 26.55 26.36 28.26 30.41 31.14 30.48 30.57 28.02 29.01 27.92 31.27 29.89 28.15 26.44 25.85 25.37 19.60 20.82 38.91 37.67 33.23 35.85 36.12 40.07
39.23 39.11 39.11 39.48 39.49 39.61 39.74 39.65 39.83 39.87 39.84 39.19 29.77 33.46 34.89 28.46 26.89 31.71 31.51 31.85 32.07 31.27 27.56 28.34 27.56 28.97 30.35 30.00 34.51 30.16 31.03 28.13 27.56 25.12 33.79 26.96 31.06 28.86 31.10 30.39 36.06 37.30 36.92 37.98 37.97 37.49 37.78
MSLP
1028.05 1027.74 1027.45 1027.16 1027.01 1026.80 1026.49 1026.18 1025.76 1025.29 1024.80 1024.40 1024.05 1023.51 1023.06 1022.57 1021.90 1021.53 1020.82 1020.38 1019.73 1019.27 1018.56 1018.11 1017.76 1017.29 1016.88 1016.05 1013.70 1011.44 1011.39 1011.63 1012.02 1012.08 1011.69 1011.80 1011.66 1011.37 1011.38 1010.96 1010.82 1010.95 1011.12 1011.42 1011.47 1011.78 1012.18
1028.24 1027.90 1027.56 1027.28 1027.02 1026.75 1026.35 1026.03 1025.72 1025.35 1024.89 1024.44 1023.94 1023.44 1022.91 1022.32 1021.81 1021.15 1020.54 1020.00 1019.20 1018.75 1018.14 1017.87 1017.55 1017.23 1016.97 1015.03 1011.55 1011.22 1011.37 1011.28 1011.54 1011.62 1011.37 1011.42 1011.18 1010.99 1011.11 1010.80 1010.84 1010.71 1011.01 1011.54 1011.94 1012.26 1012.60
1028.59 1028.25 1027.89 1027.55 1027.18 1026.72 1026.36 1025.98 1025.62 1025.22 1024.85 1024.34 1023.75 1023.26 1022.66 1021.96 1021.35 1020.70 1019.98 1019.17 1018.59 1017.96 1017.68 1017.48 1017.34 1017.05 1016.46 1013.17 1011.31 1011.41 1011.31 1011.13 1011.16 1011.23 1011.10 1010.91 1010.84 1010.81 1010.83 1010.48 1010.44 1010.91 1011.76 1012.10 1012.59 1012.68 1013.17
1029.14 1028.69 1028.29 1027.87 1027.40 1026.87 1026.37 1025.93 1025.59 1025.23 1024.80 1024.31 1023.81 1023.11 1022.36 1021.61 1020.85 1020.06 1019.17 1018.36 1017.69 1017.29 1017.02 1017.03 1017.01 1016.82 1015.14 1011.75 1011.49 1011.62 1011.17 1010.96 1010.89 1010.93 1010.94 1010.62 1010.62 1010.66 1010.65 1010.43 1010.71 1011.23 1012.01 1012.72 1013.05 1013.01 1013.41
1029.66 1029.17 1028.75 1028.28 1027.75 1027.19 1026.63 1026.14 1025.75 1025.31 1024.73 1024.20 1023.63 1022.96 1022.20 1021.35 1020.48 1019.42 1018.43 1017.43 1016.53 1016.31 1016.54 1016.72 1016.82 1016.44 1014.04 1011.45 1011.32 1010.90 1010.76 1010.98 1010.89 1010.95 1010.72 1010.41 1010.57 1010.72 1010.40 1011.11 1011.66 1012.06 1012.44 1012.71 1013.30 1013.37 1013.82
1030.08 1029.62 1029.19 1028.73 1028.20 1027.61 1027.08 1026.56 1026.10 1025.53 1024.89 1024.19 1023.44 1022.70 1021.95 1021.00 1020.02 1019.11 1017.88 1016.38 1015.69 1015.85 1016.50 1016.61 1016.13 1016.13 1013.23 1011.38 1010.75 1010.58 1010.57 1010.79 1011.06 1011.09 1011.04 1010.79 1011.02 1011.06 1010.93 1011.48 1011.39 1011.88 1012.53 1012.71 1013.14 1013.98 1014.39
1030.46 1029.87 1029.35 1028.88 1028.49 1027.87 1027.35 1026.82 1026.32 1025.75 1025.07 1024.34 1023.56 1022.64 1021.67 1020.78 1019.89 1018.88 1017.94 1016.54 1016.52 1016.31 1015.84 1015.35 1014.60 1013.42 1011.92 1011.01 1010.29 1010.56 1010.52 1010.77 1011.10 1011.38 1011.53 1010.95 1011.35 1010.71 1010.36 1010.86 1010.93 1011.43 1011.91 1012.66 1013.54 1014.16 1015.08
1030.68 1030.26 1029.75 1029.27 1028.70 1028.09 1027.57 1026.95 1026.41 1025.87 1025.22 1024.49 1023.69 1022.80 1021.73 1020.67 1019.63 1018.82 1018.49 1017.93 1018.31 1017.91 1016.01 1014.22 1013.25 1012.84 1011.94 1011.47 1011.02 1010.65 1010.61 1011.23 1011.42 1011.67 1011.65 1011.32 1010.60 1010.45 1010.57 1010.87 1011.21 1011.46 1012.08 1012.84 1014.04 1014.61 1015.26
1030.92 1030.43 1029.94 1029.35 1028.78 1028.22 1027.65 1026.96 1026.44 1025.87 1025.32 1024.62 1023.86 1022.94 1021.96 1020.65 1019.31 1018.97 1019.36 1018.99 1018.15 1017.27 1016.52 1013.25 1011.83 1011.29 1010.94 1010.61 1010.47 1010.42 1010.79 1011.16 1011.49 1011.77 1011.50 1011.13 1010.27 1010.11 1010.38 1010.62 1011.02 1011.38 1011.80 1012.68 1013.63 1015.00 1016.16
1031.08 1030.69 1030.10 1029.50 1028.85 1028.39 1027.74 1027.11 1026.46 1025.86 1025.30 1024.60 1023.87 1023.13 1022.23 1020.87 1019.72 1020.25 1019.60 1018.78 1018.11 1017.64 1016.87 1012.84 1010.77 1009.57 1009.87 1010.21 1010.22 1009.83 1010.25 1010.94 1011.27 1011.19 1011.30 1010.95 1010.00 1009.85 1010.06 1010.02 1010.16 1010.62 1010.91 1012.10 1013.38 1014.56 1015.99
1031.44 1030.96 1030.33 1029.73 1029.20 1028.68 1028.08 1027.36 1026.69 1025.99 1025.17 1024.51 1023.80 1023.10 1022.46 1022.10 1021.80 1020.95 1019.63 1018.91 1018.19 1017.84 1016.13 1011.22 1009.64 1008.40 1008.99 1010.00 1009.89 1009.77 1009.88 1010.48 1011.00 1010.83 1010.82 1010.39 1009.97 1009.97 1009.80 1009.30 1009.45 1009.70 1010.29 1011.66 1012.79 1014.42 1015.82
1031.72 1031.11 1030.54 1029.96 1029.41 1028.87 1028.17 1027.69 1026.98 1026.10 1025.33 1024.37 1023.59 1022.98 1022.40 1021.89 1021.92 1020.51 1019.64 1018.83 1018.53 1018.38 1014.92 1011.02 1009.35 1008.94 1009.61 1009.92 1010.06 1009.99 1010.19 1010.50 1010.65 1010.63 1010.31 1010.03 1009.78 1009.83 1009.40 1009.31 1009.24 1009.27 1011.06 1013.12 1014.29 1015.51 1016.33
1031.82 1031.35 1030.77 1030.16 1029.55 1028.90 1028.26 1027.64 1026.95 1026.08 1025.28 1024.41 1023.37 1022.71 1022.26 1021.91 1021.10 1019.99 1019.95 1019.30 1019.61 1017.47 1013.42 1011.18 1009.98 1009.49 1009.80 1010.09 1010.22 1010.33 1010.62 1010.79 1010.75 1010.86 1010.54 1010.26 1010.26 1009.98 1009.52 1009.48 1009.56 1009.55 1010.96 1013.52 1015.45 1015.90 1015.94
1032.02 1031.48 1030.89 1030.23 1029.65 1028.98 1028.24 1027.50 1026.75 1025.95 1025.10 1024.17 1023.27 1022.07 1021.26 1020.72 1020.12 1020.42 1020.35 1020.01 1019.26 1015.65 1013.31 1010.95 1009.98 1009.90 1010.12 1010.30 1010.44 1010.61 1010.67 1010.85 1010.60 1010.85 1010.81 1010.59 1010.97 1010.16 1009.67 1009.58 1009.50 1009.78 1010.29 1011.67 1013.33 1014.93 1015.52
1032.04 1031.58 1031.05 1030.45 1029.81 1029.17 1028.39 1027.55 1026.74 1025.92 1024.99 1023.81 1022.71 1021.91 1021.21 1019.41 1019.64 1020.60 1020.42 1019.66 1016.96 1015.21 1013.02 1011.79 1010.57 1010.34 1010.58 1010.32 1010.34 1010.71 1010.62 1010.45 1010.20 1010.26 1010.39 1010.58 1010.47 1010.13 1009.96 1009.76 1009.80 1010.33 1010.89 1011.38 1012.60 1013.99 1015.36
1032.04 1031.54 1031.00 1030.44 1029.90 1029.37 1028.59 1027.79 1026.96 1026.08 1025.17 1023.86 1023.08 1022.35 1021.09 1019.13 1019.47 1020.32 1020.24 1018.24 1016.42 1014.50 1013.21 1012.30 1011.46 1010.50 1010.43 1010.33 1010.59 1010.67 1010.42 1009.49 1009.55 1009.62 1009.65 1010.12 1010.83 1010.58 1010.51 1010.29 1010.21 1010.24 1010.90 1011.66 1012.60 1014.13 1015.39
1031.97 1031.47 1030.97 1030.45 1029.92 1029.44 1028.73 1028.07 1027.28 1026.39 1025.41 1024.37 1023.72 1022.93 1020.12 1019.24 1019.03 1020.14 1019.95 1018.44 1016.21 1014.69 1013.92 1013.24 1012.15 1011.43 1010.75 1010.19 1010.09 1010.10 1009.68 1009.14 1008.81 1008.92 1009.55 1010.18 1010.70 1011.39 1011.09 1010.63 1010.33 1010.90 1010.99 1011.78 1012.42 1013.67 1014.39
1031.73 1031.30 1030.88 1030.43 1029.96 1029.51 1028.91 1028.20 1027.55 1026.87 1026.03 1025.06 1024.80 1023.98 1020.07 1020.06 1020.10 1019.63 1019.63 1018.39 1017.04 1015.45 1014.25 1013.75 1012.65 1012.25 1011.45 1010.84 1010.21 1009.53 1009.26 1008.54 1008.29 1008.84 1009.75 1010.01 1010.96 1011.82 1011.36 1010.84 1010.69 1010.73 1011.10 1011.57 1012.73 1013.76 1014.26
1031.54 1031.08 1030.69 1030.40 1029.85 1029.49 1029.03 1028.39 1027.73 1027.30 1026.59 1026.37 1025.56 1024.05 1021.14 1020.76 1020.75 1020.11 1019.88 1018.82 1017.61 1016.46 1015.34 1014.56 1013.52 1012.51 1012.11 1011.95 1011.21 1009.46 1008.82 1007.96 1008.20 1008.93 1009.31 1010.07 1011.11 1012.43 1012.49 1012.14 1011.38 1011.06 1011.21 1011.50 1012.23 1013.29 1013.95
1031.13 1030.75 1030.49 1030.19 1029.71 1029.37 1028.92 1028.39 1027.93 1027.49 1027.13 1026.82 1026.16 1025.33 1023.00 1021.91 1021.62 1021.20 1020.50 1019.05 1018.02 1016.75 1015.83 1015.32 1014.38 1013.65 1013.08 1012.09 1011.38 1010.13 1009.17 1008.68 1008.61 1008.87 1009.40 1009.66 1011.00 1011.57 1011.53 1011.14 1011.21 1011.31 1010.96 1011.42 1012.10 1013.53 1013.61
1030.77 1030.35 1030.04 1029.80 1029.44 1029.07 1028.79 1028.26 1027.95 1027.58 1027.34 1027.44 1026.43 1026.11 1025.11 1023.97 1023.03 1022.53 1021.98 1021.04 1019.41 1018.10 1016.89 1015.77 1014.65 1013.99 1013.98 1013.08 1011.73 1010.62 1009.93 1009.53 1009.53 1009.52 1009.86 1010.27 1011.33 1011.81 1011.59 1011.04 1010.88 1010.56 1010.73 1011.09 1011.62 1012.21 1012.62
1030.21 1029.89 1029.59 1029.35 1029.05 1028.72 1028.47 1028.01 1027.74 1027.63 1027.44 1027.98 1027.23 1026.37 1026.14 1025.20 1023.88 1023.20 1022.46 1021.45 1020.43 1019.34 1018.36 1016.98 1016.30 1015.53 1014.83 1013.94 1012.74 1011.80 1010.70 1010.06 1009.71 1010.18 1010.43 1010.86 1011.82 1012.14 1012.21 1011.59 1011.07 1010.89 1010.46 1010.42 1010.89 1011.47 1011.87
1029.61 1029.33 1028.99 1028.75 1028.42 1028.20 1027.98 1027.77 1027.58 1027.43 1027.50 1028.16 1027.87 1027.47 1027.10 1025.45 1024.53 1023.75 1022.86 1021.89 1020.67 1020.22 1019.05 1018.03 1017.75 1016.92 1014.64 1013.52 1012.95 1012.22 1011.27 1009.47 1009.20 1009.71 1010.71 1011.39 1011.99 1013.01 1013.02 1012.37 1011.71 1011.35 1009.40 1009.78 1010.19 1010.39 1010.70
1028.89 1028.67 1028.34 1028.05 1027.80 1027.58 1027.40 1027.25 1027.15 1027.07 1027.12 1027.73 1027.94 1027.96 1027.33 1025.47 1024.76 1023.81 1022.94 1022.17 1021.24 1020.41 1019.49 1018.14 1017.87 1017.37 1015.18 1014.32 1012.65 1011.24 1009.80 1009.15 1009.34 1009.61 1009.69 1011.30 1012.34 1013.32 1013.79 1013.25 1012.20 1008.58 1008.14 1008.19 1008.72 1009.39 1009.57
1028.14 1027.86 1027.61 1027.29 1027.01 1026.84 1026.65 1026.68 1026.51 1026.46 1026.46 1026.86 1027.14 1027.50 1027.20 1025.42 1024.51 1023.49 1022.75 1021.88 1020.94 1020.13 1019.39 1018.51 1016.66 1017.15 1016.09 1015.02 1013.77 1011.96 1010.72 1010.23 1009.93 1009.92 1010.03 1010.16 1011.98 1013.63 1014.01 1013.57 1011.39 1009.24 1008.04 1007.89 1008.09 1008.86 1008.89
1027.25 1027.04 1026.79 1026.48 1026.21 1026.00 1025.93 1025.88 1025.82 1025.70 1025.58 1026.10 1026.21 1026.37 1026.60 1025.71 1023.91 1023.39 1022.86 1022.06 1021.13 1020.03 1018.70 1017.20 1016.60 1016.26 1015.53 1014.63 1014.29 1012.96 1011.03 1009.89 1010.39 1010.33 1010.51 1010.81 1011.21 1012.73 1013.83 1013.25 1010.89 1008.75 1007.29 1006.99 1007.63 1008.19 1008.10
1026.34 1026.07 1025.97 1025.68 1025.34 1025.11 1024.98 1024.90 1024.87 1024.75 1024.71 1025.04 1025.25 1025.33 1025.60 1024.82 1023.60 1023.29 1022.40 1021.47 1020.72 1019.95 1018.66 1017.89 1016.90 1015.92 1015.74 1014.19 1013.46 1012.56 1011.08 1009.31 1009.64 1009.77 1010.29 1011.10 1011.86 1012.57 1013.18 1012.23 1009.95 1007.53 1006.86 1006.77 1007.44 1006.61 1006.76
1025.42 1025.15 1024.89 1024.63 1024.36 1024.10 1023.95 1023.83 1023.76 1023.74 1023.60 1023.97 1024.06 1024.09 1024.46 1023.86 1022.53 1022.29 1021.71 1021.20 1020.49 1019.95 1019.31 1018.68 1017.93 1015.76 1015.07 1013.86 1012.88 1011.82 1010.48 1008.97 1008.78 1008.32 1008.32 1009.17 1010.71 1011.63 1011.87 1011.29 1009.09 1006.40 1006.60 1005.84 1005.19 1005.44 1005.69
1024.38 1024.14 1023.85 1023.47 1023.18 1022.98 1022.81 1022.67 1022.57 1022.53 1022.54 1022.53 1022.95 1022.78 1022.88 1022.86 1021.46 1021.16 1020.42 1019.98 1019.45 1018.93 1019.14 1018.74 1017.24 1016.13 1015.74 1014.10 1012.55 1011.32 1009.81 1008.31 1007.55 1008.00 1007.42 1008.13 1007.30 1008.17 1008.71 1006.97 1006.06 1005.37 1004.65 1004.33 1004.58 1005.12 1005.62
Wind_Speed
15 13 15 12 12 14 15 17 17 18 19 20 21 22 22 22 22 22 22 22 21 22 19 18 16 12 5 1 10 8 6 8 5 4 3 0 1 2 2 3 1 6 4 6 9 9 6
19 19 17 16 13 13 14 14 16 17 19 20 21 22 24 23 23 23 23 22 22 22 20 17 14 9 3 4 6 5 7 3 5 4 2 5 5 4 4 6 6 8 7 9 7 10 5
23 22 20 19 19 16 15 15 16 17 18 21 21 21 23 25 25 25 25 23 24 23 19 16 12 2 3 13 3 2 6 4 3 2 1 2 2 2 2 3 3 9 10 7 4 5 6
22 23 23 23 22 20 18 16 15 17 19 20 22 21 22 24 25 25 25 24 24 23 16 13 8 1 8 7 7 6 6 3 5 5 3 6 1 2 4 2 4 6 6 7 3 6 4
21 22 23 23 23 23 22 21 22 21 20 20 21 21 23 24 26 27 28 28 26 17 7 6 3 2 10 10 4 6 5 3 4 4 4 2 1 3 3 6 3 6 6 5 5 3 4
21 22 21 22 23 23 23 24 24 24 23 21 20 22 24 26 27 28 30 27 14 3 4 5 4 3 6 5 4 4 4 2 3 3 2 1 2 2 2 4 12 8 7 4 7 6 12
22 21 21 21 22 22 23 24 24 24 24 24 25 23 24 26 28 29 17 6 7 4 1 7 4 5 5 4 3 3 3 2 1 3 5 4 5 12 12 5 5 5 8 7 4 11 16
21 21 21 22 22 22 23 23 24 25 26 26 26 27 26 27 30 28 2 5 4 7 9 11 15 15 17 9 5 5 7 4 3 5 4 2 10 5 5 5 3 5 7 4 7 9 19
21 20 21 21 22 22 24 23 23 24 26 26 26 26 28 28 31 5 5 9 10 8 4 10 8 8 7 7 5 7 10 5 4 6 6 5 4 9 7 5 9 9 8 7 22 10 15
21 22 20 21 22 24 24 24 23 24 26 26 25 25 26 28 7 6 4 14 15 2 4 9 5 7 6 4 5 7 8 6 4 11 6 6 5 9 6 9 14 16 9 20 24 24 16
22 23 23 24 24 23 24 25 25 26 27 27 23 23 22 17 5 5 5 14 12 4 5 5 4 4 7 9 3 2 4 3 6 6 5 7 7 5 6 5 6 8 17 27 26 15 13
23 23 23 23 23 23 22 25 26 27 27 27 24 24 21 5 3 7 9 12 3 9 9 3 5 5 7 6 3 3 3 2 4 5 1 7 3 2 4 2 3 10 19 17 6 4 1
22 23 24 24 25 25 26 25 26 27 28 28 25 23 19 6 5 4 8 3 6 6 5 6 6 7 7 7 5 4 5 5 5 5 2 3 2 2 2 6 4 12 22 7 4 3 6
20 21 24 24 25 26 26 26 27 27 28 28 25 25 8 7 6 1 4 2 4 5 7 5 4 7 9 8 7 9 4 5 7 2 4 6 3 6 3 3 6 12 9 9 11 9 8
20 20 21 22 24 26 26 26 27 27 28 30 21 5 4 5 5 4 2 3 10 7 4 5 3 5 5 6 6 8 8 8 6 9 6 5 4 3 4 0 4 7 3 6 7 1 7
19 21 20 22 23 25 25 27 28 28 29 31 6 4 5 2 7 3 3 7 5 5 7 7 4 5 10 9 9 8 9 7 8 9 5 4 3 3 3 2 2 3 3 3 3 7 6
18 19 19 21 22 24 25 24 26 29 29 25 3 6 5 11 5 3 4 7 5 9 9 4 4 6 5 9 10 6 8 6 11 5 9 5 5 3 5 6 6 3 2 3 4 5 6
18 19 18 19 20 21 24 25 25 27 28 15 3 5 4 6 3 2 4 5 9 9 8 6 5 6 5 5 5 11 13 7 5 9 8 5 6 4 4 1 3 4 6 5 6 5 2
18 19 19 19 19 20 21 23 23 24 26 7 5 5 6 1 3 2 3 6 6 6 12 5 7 2 7 5 7 7 8 10 9 9 11 6 1 4 3 6 3 5 4 4 5 3 6
18 20 18 18 18 18 19 20 22 22 24 8 4 5 6 4 3 6 10 8 7 6 12 13 14 13 15 5 7 7 3 2 6 5 5 8 5 8 10 6 7 7 9 7 7 4 4
18 19 17 18 19 18 16 18 18 20 20 5 3 4 4 5 5 10 11 10 15 10 9 8 6 5 9 6 7 6 1 1 5 2 4 7 6 5 6 5 7 8 9 10 9 6 8
18 19 19 18 18 18 16 16 16 16 17 2 4 4 4 6 9 7 7 6 17 21 10 13 18 18 16 13 11 12 3 4 5 0 4 2 4 5 5 3 3 6 15 15 8 7 4
19 19 19 19 19 16 17 16 13 12 10 1 2 3 5 4 4 4 5 9 13 16 12 10 14 19 20 18 12 17 19 9 9 11 7 8 7 5 5 2 4 6 16 12 6 8 11
20 20 20 20 20 18 18 16 13 13 9 3 4 2 5 8 7 7 13 17 18 19 20 22 16 16 13 28 23 15 11 9 11 6 7 9 8 4 4 3 4 9 8 14 21 14 7
20 21 21 20 21 19 19 18 16 14 15 3 3 3 4 10 8 12 14 13 15 15 17 17 22 13 17 17 10 8 4 3 4 4 5 6 6 3 7 4 5 6 6 12 13 12 11
21 21 23 21 22 21 20 20 19 18 17 4 4 4 3 8 12 15 11 13 13 13 19 17 13 7 14 8 4 6 7 7 6 4 5 5 5 6 4 8 13 8 6 9 9 13 11
21 22 23 24 23 23 22 21 21 21 18 7 5 6 3 10 14 17 12 8 5 7 9 12 8 7 5 5 6 6 9 7 9 13 9 5 4 8 3 5 9 8 5 10 15 11 14
22 23 24 24 25 24 23 22 22 22 22 11 6 6 6 10 13 16 16 17 13 9 12 8 11 5 5 7 6 5 5 8 5 8 12 12 10 7 3 2 11 8 9 18 7 4 17
23 24 26 27 25 25 24 24 23 23 23 20 6 5 7 10 12 15 21 23 24 25 13 11 14 11 4 6 4 4 6 4 9 6 6 6 10 10 13 11 5 5 4 6 6 7 8
Wind_Direction
10 1 357 1 8 4 2 356 356 359 356 355 352 350 344 339 335 328 326 320 316 313 317 315 310 319 333 214 254 255 192 225 203 188 179 221 270 180 233 285 38 108 153 95 106 107 97
20 13 9 5 360 351 351 350 353 351 352 350 348 346 345 339 333 328 323 316 315 309 312 307 300 317 270 239 241 198 210 234 247 222 215 169 239 179 251 239 157 178 135 122 91 114 93
23 21 18 12 5 353 345 345 343 344 346 345 344 341 337 338 333 328 322 317 310 306 304 296 284 283 285 240 228 13 265 205 211 232 268 267 336 130 337 248 112 134 94 75 79 143 145
17 18 14 17 16 9 2 346 342 346 343 342 340 336 333 331 329 326 320 314 307 299 298 280 248 202 248 250 265 280 266 315 257 248 225 249 271 193 184 269 43 94 67 116 235 157 328
12 12 8 9 8 7 6 8 7 354 343 338 335 333 330 328 326 326 321 312 302 288 256 194 171 175 265 309 209 217 181 237 282 256 244 348 61 208 130 138 62 6 152 133 128 138 119
11 12 9 5 4 3 1 360 358 356 352 339 333 331 329 327 328 325 322 308 289 347 181 197 244 331 268 229 209 164 205 190 274 258 279 142 116 169 88 148 189 176 137 138 143 180 103
10 9 3 1 359 1 358 357 354 351 349 348 343 330 328 328 328 325 334 358 9 3 32 216 214 241 318 271 117 196 176 113 316 178 211 204 155 199 202 139 110 111 111 122 89 142 103
9 8 5 6 0 360 354 350 352 350 348 345 343 340 329 328 325 324 352 54 357 279 299 264 251 256 264 270 268 253 125 151 177 218 228 151 224 187 172 199 178 134 138 144 117 145 112
9 6 4 1 360 1 358 355 348 349 349 343 339 337 335 329 321 24 297 21 320 358 263 281 212 218 223 174 204 231 149 180 212 230 217 190 239 181 181 197 203 205 178 170 148 119 106
9 7 3 2 0 4 0 357 353 350 347 343 338 336 339 335 44 339 316 336 328 333 340 273 206 231 180 170 269 196 182 160 238 212 214 230 253 172 173 203 188 215 191 157 142 138 155
13 6 8 5 2 2 358 355 355 350 346 342 336 333 332 337 281 310 304 325 314 64 16 235 167 180 162 158 162 212 155 123 234 256 139 234 169 179 195 198 183 195 164 157 152 140 133
4 2 359 1 359 355 357 354 348 348 347 339 334 329 327 340 296 254 329 311 44 46 257 264 151 160 128 187 183 121 161 114 245 234 269 179 160 139 182 218 212 133 127 129 66 120 239
3 0 358 357 355 352 350 351 347 345 344 340 329 323 314 279 252 305 334 18 49 148 300 199 182 164 165 186 219 169 183 197 211 146 218 84 80 287 160 98 359 137 139 134 162 222 212
357 358 354 354 355 353 350 349 345 344 340 339 331 316 264 229 233 55 338 112 135 233 260 328 160 149 179 167 215 195 204 216 247 234 156 156 194 186 194 204 171 169 147 165 169 181 180
349 352 353 351 352 352 347 349 346 344 343 336 333 295 283 256 205 130 173 164 204 204 253 298 46 141 223 198 178 184 206 218 230 176 162 150 230 144 170 119 183 190 167 185 108 68 122
345 344 348 349 350 351 348 350 347 346 348 340 335 304 273 285 135 97 207 227 231 244 354 346 302 196 185 198 181 191 188 220 227 206 197 197 116 232 126 109 338 130 166 98 8 157 166
336 338 343 343 346 350 346 350 350 350 350 346 340 331 271 4 111 198 216 245 309 295 309 307 330 330 257 190 190 191 205 246 211 184 179 153 120 211 124 207 170 127 193 196 131 149 151
329 332 334 336 340 345 346 346 353 353 353 353 351 324 280 27 257 191 217 288 335 316 319 295 279 242 274 284 255 193 203 201 188 157 168 187 122 159 191 248 203 193 194 157 148 211 139
321 321 325 331 332 338 345 342 347 351 355 345 313 267 300 202 275 188 265 288 284 308 288 297 317 92 48 319 305 215 212 218 156 151 167 187 121 93 44 333 272 202 200 161 117 84 197
312 313 321 321 324 325 334 342 341 346 351 358 292 322 317 10 329 310 336 292 258 281 278 266 271 281 300 269 210 272 247 330 158 128 134 114 140 162 189 211 155 188 196 184 143 134 169
305 306 312 308 313 319 325 328 342 345 350 356 279 256 283 305 323 331 319 315 310 296 292 313 278 270 258 282 312 235 187 216 32 83 79 118 162 164 216 231 184 176 186 177 191 167 172
302 301 304 302 304 311 311 319 331 345 345 19 310 334 338 288 288 302 302 299 296 302 300 283 282 291 306 291 262 296 228 220 198 258 119 23 193 146 210 172 90 198 207 197 172 171 110
299 297 298 297 295 299 297 303 317 329 358 359 316 280 298 279 295 310 286 282 288 295 293 296 338 321 277 288 286 305 270 220 193 160 158 143 138 116 229 120 81 306 211 195 170 187 150
299 298 295 294 296 295 293 298 296 302 306 174 231 252 280 284 269 268 288 290 287 287 283 284 282 288 309 316 311 312 276 183 167 200 146 143 126 122 167 75 215 251 197 189 195 187 158
298 297 296 294 295 294 289 284 279 284 291 199 211 183 272 276 279 275 286 279 290 285 285 285 286 279 283 296 304 292 317 82 222 227 187 137 129 136 146 206 295 279 199 178 169 209 181
298 297 295 295 290 291 285 279 275 270 267 269 211 183 224 277 261 272 294 294 292 285 294 272 274 298 318 246 205 230 217 180 177 183 200 118 109 133 139 167 218 210 215 141 95 224 185
297 296 294 292 289 288 284 277 270 270 269 256 238 185 208 269 267 265 259 250 270 293 280 304 306 338 329 225 220 215 243 181 162 170 170 174 84 184 139 212 276 244 196 136 178 227 175
294 295 293 290 288 284 282 277 271 266 262 263 241 192 207 263 266 265 263 270 268 252 262 297 324 254 237 224 197 200 232 211 141 177 173 170 164 186 105 98 264 199 150 175 200 177 181
289 292 292 289 284 282 279 276 272 264 261 257 246 234 212 244 279 285 268 259 251 239 254 256 247 268 272 299 205 267 259 171 156 191 175 202 186 178 185 206 215 247 204 199 169 152 164